Time,TemperatureF,DewpointF,PressureIn,WindDirection,WindDirectionDegrees,WindSpeedMPH,WindSpeedGustMPH,Humidity,HourlyPrecipIn,Conditions,Clouds,dailyrainin,SoftwareType,DateUTC
2013-08-04 00:04:00,59.2,56.9,29.26,East,90,0.0,0.0,92,-99.99,,,-99.99,WSDL version 423,2013-08-04 04:04:00,
2013-08-04 00:09:00,59.0,56.8,29.26,SW,223,0.0,0.0,93,-99.99,,,-99.99,WSDL version 423,2013-08-04 04:09:00,
2013-08-04 00:14:00,58.8,56.9,29.26,North,352,0.0,0.0,93,-99.99,,,-99.99,WSDL version 423,2013-08-04 04:14:00,
2013-08-04 00:18:00,58.6,56.5,29.26,SE,135,0.0,0.0,93,-99.99,,,-99.99,WSDL version 423,2013-08-04 04:18:00,
2013-08-04 00:24:00,58.3,56.4,29.26,ENE,60,0.0,0.0,93,-99.99,,,-99.99,WSDL version 423,2013-08-04 04:24:00,
2013-08-04 00:28:00,58.2,56.3,29.26,North,3,0.0,0.0,93,-99.99,,,-99.99,WSDL version 423,2013-08-04 04:28:00,
2013-08-04 00:34:00,58.1,56.5,29.26,SSE,148,0.0,0.0,94,-99.99,,,-99.99,WSDL version 423,2013-08-04 04:34:00,
2013-08-04 00:39:00,58.1,56.5,29.26,SE,141,0.0,0.0,95,-99.99,,,-99.99,WSDL version 423,2013-08-04 04:39:00,
2013-08-04 00:44:00,57.9,56.7,29.26,SE,135,0.0,0.0,96,-99.99,,,-99.99,WSDL version 423,2013-08-04 04:44:00,
2013-08-04 00:49:00,57.9,56.6,29.26,SE,135,0.0,0.0,96,-99.99,,,-99.99,WSDL version 423,2013-08-04 04:49:00,
2013-08-04 00:54:00,57.7,56.4,29.26,SE,135,0.0,0.0,96,-99.99,,,-99.99,WSDL version 423,2013-08-04 04:54:00,
2013-08-04 00:59:00,57.6,56.3,29.26,SE,135,0.0,0.0,96,-99.99,,,-99.99,WSDL version 423,2013-08-04 04:59:00,
2013-08-04 01:04:00,57.4,56.1,29.26,SE,135,0.0,0.0,96,-99.99,,,-99.99,WSDL version 423,2013-08-04 05:04:00,
2013-08-04 01:09:00,57.2,55.9,29.26,ESE,121,0.0,0.0,96,-99.99,,,-99.99,WSDL version 423,2013-08-04 05:09:00,
2013-08-04 01:14:00,57.0,55.9,29.26,East,90,0.0,0.0,97,-99.99,,,-99.99,WSDL version 423,2013-08-04 05:14:00,
2013-08-04 01:18:00,56.8,55.9,29.26,East,90,0.0,0.0,97,-99.99,,,-99.99,WSDL version 423,2013-08-04 05:18:00,
2013-08-04 01:24:00,56.8,55.9,29.26,East,90,0.0,0.0,97,-99.99,,,-99.99,WSDL version 423,2013-08-04 05:24:00,
2013-08-04 01:29:00,56.7,55.8,29.26,East,90,0.0,0.0,97,-99.99,,,-99.99,WSDL version 423,2013-08-04 05:29:00,
2013-08-04 01:34:00,56.6,55.6,29.26,SE,143,0.0,0.0,97,-99.99,,,-99.99,WSDL version 423,2013-08-04 05:34:00,
2013-08-04 01:39:00,56.5,55.7,29.26,SE,135,0.0,0.0,98,-99.99,,,-99.99,WSDL version 423,2013-08-04 05:39:00,
2013-08-04 01:44:00,56.3,55.7,29.26,SSW,203,0.0,0.0,98,-99.99,,,-99.99,WSDL version 423,2013-08-04 05:44:00,
2013-08-04 01:49:00,56.2,55.6,29.26,SSW,203,0.0,0.0,98,-99.99,,,-99.99,WSDL version 423,2013-08-04 05:49:00,
2013-08-04 01:53:00,56.1,55.5,29.26,North,360,0.0,0.0,98,-99.99,,,-99.99,WSDL version 423,2013-08-04 05:53:00,
2013-08-04 01:58:00,56.1,55.4,29.26,North,360,0.0,0.0,98,-99.99,,,-99.99,WSDL version 423,2013-08-04 05:58:00,
2013-08-04 02:04:00,55.9,55.5,29.26,North,360,0.0,0.0,99,-99.99,,,-99.99,WSDL version 423,2013-08-04 06:04:00,
2013-08-04 02:09:00,55.9,55.6,29.26,North,360,0.0,0.0,99,-99.99,,,-99.99,WSDL version 423,2013-08-04 06:09:00,
2013-08-04 02:13:00,55.8,55.5,29.26,North,360,0.0,0.0,99,-99.99,,,-99.99,WSDL version 423,2013-08-04 06:13:00,
2013-08-04 02:19:00,55.6,55.6,29.26,North,360,0.0,0.0,100,-99.99,,,-99.99,WSDL version 423,2013-08-04 06:19:00,
2013-08-04 02:24:00,55.4,55.3,29.26,North,360,0.0,0.0,100,-99.99,,,-99.99,WSDL version 423,2013-08-04 06:24:00,
2013-08-04 02:29:00,55.3,55.2,29.26,North,360,0.0,0.0,99,-99.99,,,-99.99,WSDL version 423,2013-08-04 06:29:00,
2013-08-04 02:33:00,55.2,55.0,29.26,North,360,0.0,0.0,100,-99.99,,,-99.99,WSDL version 423,2013-08-04 06:33:00,
2013-08-04 02:39:00,55.0,55.0,29.26,North,360,0.0,0.0,100,-99.99,,,-99.99,WSDL version 423,2013-08-04 06:39:00,
2013-08-04 02:43:00,54.9,54.9,29.26,ENE,65,0.0,0.0,100,-99.99,,,-99.99,WSDL version 423,2013-08-04 06:43:00,
2013-08-04 02:49:00,54.8,54.8,29.26,NNE,28,0.0,0.0,100,-99.99,,,-99.99,WSDL version 423,2013-08-04 06:49:00,
2013-08-04 02:54:00,54.7,54.7,29.26,NNE,30,0.0,0.0,100,-99.99,,,-99.99,WSDL version 423,2013-08-04 06:54:00,
2013-08-04 02:59:00,54.7,54.7,29.26,NNE,23,0.0,0.0,100,-99.99,,,-99.99,WSDL version 423,2013-08-04 06:59:00,
2013-08-04 03:04:00,54.5,54.5,29.26,NNE,23,0.0,0.0,100,-99.99,,,-99.99,WSDL version 423,2013-08-04 07:04:00,
2013-08-04 03:09:00,54.5,54.5,29.26,NNE,23,0.0,0.0,100,-99.99,,,-99.99,WSDL version 423,2013-08-04 07:09:00,
2013-08-04 03:14:00,54.5,54.5,29.26,NE,42,0.0,0.0,100,-99.99,,,-99.99,WSDL version 423,2013-08-04 07:14:00,
2013-08-04 03:19:00,54.5,54.5,29.26,SSE,165,0.0,0.0,100,-99.99,,,-99.99,WSDL version 423,2013-08-04 07:19:00,
2013-08-04 03:24:00,54.3,54.3,29.26,East,90,0.0,0.0,100,-99.99,,,-99.99,WSDL version 423,2013-08-04 07:24:00,
2013-08-04 03:29:00,54.3,54.3,29.26,East,90,0.0,0.0,100,-99.99,,,-99.99,WSDL version 423,2013-08-04 07:29:00,
2013-08-04 03:34:00,54.3,54.3,29.26,East,90,0.0,0.0,100,-99.99,,,-99.99,WSDL version 423,2013-08-04 07:34:00,
2013-08-04 03:38:00,54.2,54.2,29.26,ENE,74,0.0,0.0,100,-99.99,,,-99.99,WSDL version 423,2013-08-04 07:38:00,
2013-08-04 03:43:00,54.1,54.1,29.26,ENE,68,0.0,0.0,100,-99.99,,,-99.99,WSDL version 423,2013-08-04 07:43:00,
2013-08-04 03:48:00,54.0,54.0,29.26,North,360,0.0,0.0,100,-99.99,,,-99.99,WSDL version 423,2013-08-04 07:48:00,
2013-08-04 03:54:00,54.0,54.0,29.26,North,360,0.0,0.0,100,-99.99,,,-99.99,WSDL version 423,2013-08-04 07:54:00,
2013-08-04 03:58:00,53.9,53.9,29.26,North,360,0.0,0.0,100,-99.99,,,-99.99,WSDL version 423,2013-08-04 07:58:00,
2013-08-04 04:03:00,53.8,53.7,29.26,NNE,20,0.0,0.0,100,-99.99,,,-99.99,WSDL version 423,2013-08-04 08:03:00,
2013-08-04 04:09:00,53.6,53.6,29.26,North,352,0.0,0.0,100,-99.99,,,-99.99,WSDL version 423,2013-08-04 08:09:00,
2013-08-04 04:14:00,53.6,53.6,29.26,NNW,338,0.0,0.0,100,-99.99,,,-99.99,WSDL version 423,2013-08-04 08:14:00,
2013-08-04 04:19:00,53.6,53.6,29.26,North,360,0.0,0.0,100,-99.99,,,-99.99,WSDL version 423,2013-08-04 08:19:00,
2013-08-04 04:24:00,53.6,53.6,29.23,North,360,0.0,0.0,100,-99.99,,,-99.99,WSDL version 423,2013-08-04 08:24:00,
2013-08-04 04:29:00,53.7,53.7,29.23,North,360,0.0,0.0,100,-99.99,,,-99.99,WSDL version 423,2013-08-04 08:29:00,
2013-08-04 04:34:00,53.8,53.8,29.23,NE,39,0.0,0.0,100,-99.99,,,-99.99,WSDL version 423,2013-08-04 08:34:00,
2013-08-04 04:39:00,53.8,53.8,29.23,NE,35,0.0,0.0,100,-99.99,,,-99.99,WSDL version 423,2013-08-04 08:39:00,
2013-08-04 04:44:00,54.0,54.0,29.23,North,360,0.0,0.0,100,-99.99,,,-99.99,WSDL version 423,2013-08-04 08:44:00,
2013-08-04 04:49:00,54.2,54.2,29.23,North,360,0.0,0.0,100,-99.99,,,-99.99,WSDL version 423,2013-08-04 08:49:00,
2013-08-04 04:54:00,54.4,54.3,29.23,North,360,0.0,0.0,100,-99.99,,,-99.99,WSDL version 423,2013-08-04 08:54:00,
2013-08-04 04:59:00,54.5,54.5,29.23,North,360,0.0,0.0,100,-99.99,,,-99.99,WSDL version 423,2013-08-04 08:59:00,
2013-08-04 05:03:00,54.5,54.5,29.23,North,360,0.0,0.0,100,-99.99,,,-99.99,WSDL version 423,2013-08-04 09:03:00,
2013-08-04 05:08:00,54.7,54.7,29.23,North,360,0.0,0.0,100,-99.99,,,-99.99,WSDL version 423,2013-08-04 09:08:00,
2013-08-04 05:14:00,54.9,54.9,29.23,North,360,0.0,0.0,100,-99.99,,,-99.99,WSDL version 423,2013-08-04 09:14:00,
2013-08-04 05:19:00,54.9,54.9,29.23,ESE,113,0.0,0.0,100,-99.99,,,-99.99,WSDL version 423,2013-08-04 09:19:00,
2013-08-04 05:24:00,55.0,54.9,29.26,ESE,113,0.0,0.0,100,-99.99,,,-99.99,WSDL version 423,2013-08-04 09:24:00,
2013-08-04 05:29:00,55.0,55.0,29.26,ESE,113,0.0,0.0,100,-99.99,,,-99.99,WSDL version 423,2013-08-04 09:29:00,
2013-08-04 05:34:00,55.2,55.2,29.26,East,90,0.0,0.0,100,-99.99,,,-99.99,WSDL version 423,2013-08-04 09:34:00,
2013-08-04 05:38:00,55.2,55.2,29.26,East,85,0.0,0.0,100,-99.99,,,-99.99,WSDL version 423,2013-08-04 09:38:00,
2013-08-04 05:44:00,55.3,55.3,29.26,North,3,0.0,0.0,100,-99.99,,,-99.99,WSDL version 423,2013-08-04 09:44:00,
2013-08-04 05:49:00,55.4,55.4,29.26,North,5,0.0,0.0,100,-99.99,,,-99.99,WSDL version 423,2013-08-04 09:49:00,
2013-08-04 05:54:00,55.4,55.4,29.26,WSW,253,0.0,0.0,100,-99.99,,,-99.99,WSDL version 423,2013-08-04 09:54:00,
2013-08-04 05:59:00,55.5,55.5,29.26,NNW,335,0.0,0.0,100,-99.99,,,-99.99,WSDL version 423,2013-08-04 09:59:00,
2013-08-04 06:04:00,55.7,55.7,29.26,NNE,23,0.0,0.0,100,-99.99,,,-99.99,WSDL version 423,2013-08-04 10:04:00,
2013-08-04 06:09:00,55.9,55.8,29.26,North,352,0.0,0.0,100,-99.99,,,-99.99,WSDL version 423,2013-08-04 10:09:00,
2013-08-04 06:14:00,56.0,56.0,29.26,NNW,338,0.0,0.0,100,-99.99,,,-99.99,WSDL version 423,2013-08-04 10:14:00,
2013-08-04 06:19:00,56.1,56.1,29.26,NNW,338,0.0,0.0,100,-99.99,,,-99.99,WSDL version 423,2013-08-04 10:19:00,
2013-08-04 06:24:00,56.3,56.3,29.26,NNW,338,0.0,0.0,100,-99.99,,,-99.99,WSDL version 423,2013-08-04 10:24:00,
2013-08-04 06:29:00,56.4,56.4,29.26,SE,138,0.0,0.0,100,-99.99,,,-99.99,WSDL version 423,2013-08-04 10:29:00,
2013-08-04 06:33:00,56.6,56.6,29.26,SW,225,0.0,0.0,100,-99.99,,,-99.99,WSDL version 423,2013-08-04 10:33:00,
2013-08-04 06:44:00,56.8,56.8,29.26,NNW,338,0.0,0.0,100,-99.99,,,-99.99,WSDL version 423,2013-08-04 10:44:00,
2013-08-04 06:49:00,57.0,57.0,29.26,NNE,14,0.0,0.0,100,-99.99,,,-99.99,WSDL version 423,2013-08-04 10:49:00,
2013-08-04 06:54:00,57.1,57.1,29.26,SW,220,0.0,0.0,100,-99.99,,,-99.99,WSDL version 423,2013-08-04 10:54:00,
2013-08-04 06:59:00,57.4,57.3,29.26,SW,225,0.0,0.0,100,-99.99,,,-99.99,WSDL version 423,2013-08-04 10:59:00,
2013-08-04 07:04:00,57.6,57.6,29.26,SSW,203,0.0,0.0,100,-99.99,,,-99.99,WSDL version 423,2013-08-04 11:04:00,
2013-08-04 07:08:00,57.7,57.7,29.26,SE,130,0.0,0.0,100,-99.99,,,-99.99,WSDL version 423,2013-08-04 11:08:00,
2013-08-04 07:14:00,58.3,58.3,29.26,East,98,0.0,0.0,100,-99.99,,,-99.99,WSDL version 423,2013-08-04 11:14:00,
2013-08-04 07:18:00,60.7,60.7,29.26,East,90,0.0,0.0,100,-99.99,,,-99.99,WSDL version 423,2013-08-04 11:18:00,
2013-08-04 07:24:00,63.9,63.9,29.26,East,79,0.0,0.0,100,-99.99,,,-99.99,WSDL version 423,2013-08-04 11:24:00,
2013-08-04 07:28:00,66.2,66.2,29.26,NNW,343,0.0,0.0,100,-99.99,,,-99.99,WSDL version 423,2013-08-04 11:28:00,
2013-08-04 07:34:00,66.5,66.5,29.26,North,355,0.0,0.0,100,-99.99,,,-99.99,WSDL version 423,2013-08-04 11:34:00,
2013-08-04 07:39:00,65.8,64.1,29.29,SW,228,0.0,0.0,92,-99.99,,,-99.99,WSDL version 423,2013-08-04 11:39:00,
2013-08-04 07:43:00,65.0,61.0,29.29,South,188,0.0,1.1,81,-99.99,,,-99.99,WSDL version 423,2013-08-04 11:43:00,
2013-08-04 07:49:00,64.4,58.0,29.29,WNW,293,0.0,1.1,79,-99.99,,,-99.99,WSDL version 423,2013-08-04 11:49:00,
2013-08-04 07:54:00,64.1,58.0,29.26,SW,220,0.0,0.9,82,-99.99,,,-99.99,WSDL version 423,2013-08-04 11:54:00,
2013-08-04 07:59:00,64.2,58.0,29.26,WNW,295,0.0,1.1,79,-99.99,,,-99.99,WSDL version 423,2013-08-04 11:59:00,
2013-08-04 08:04:00,64.2,57.7,29.26,SW,215,0.0,1.1,80,-99.99,,,-99.99,WSDL version 423,2013-08-04 12:04:00,
2013-08-04 08:09:00,64.3,58.0,29.29,NNE,15,0.0,1.1,79,-99.99,,,-99.99,WSDL version 423,2013-08-04 12:09:00,
2013-08-04 08:14:00,64.1,56.4,29.29,NNW,345,0.7,4.5,73,-99.99,,,-99.99,WSDL version 423,2013-08-04 12:14:00,
2013-08-04 08:19:00,63.6,54.6,29.29,WSW,258,1.6,4.5,74,-99.99,,,-99.99,WSDL version 423,2013-08-04 12:19:00,
2013-08-04 08:23:00,63.7,55.1,29.29,NNW,328,0.9,3.1,73,-99.99,,,-99.99,WSDL version 423,2013-08-04 12:23:00,
2013-08-04 08:29:00,64.2,55.5,29.29,West,262,1.1,3.4,74,-99.99,,,-99.99,WSDL version 423,2013-08-04 12:29:00,
2013-08-04 08:34:00,64.5,54.8,29.29,SW,233,2.0,5.8,70,-99.99,,,-99.99,WSDL version 423,2013-08-04 12:34:00,
2013-08-04 08:39:00,64.6,54.7,29.29,SW,218,0.5,6.0,70,-99.99,,,-99.99,WSDL version 423,2013-08-04 12:39:00,
2013-08-04 08:43:00,65.0,55.1,29.29,West,260,1.8,6.0,70,-99.99,,,-99.99,WSDL version 423,2013-08-04 12:43:00,
2013-08-04 08:49:00,65.9,55.8,29.29,SSW,208,1.5,4.3,70,-99.99,,,-99.99,WSDL version 423,2013-08-04 12:49:00,
2013-08-04 08:54:00,65.3,54.6,29.29,NW,304,1.7,3.6,66,-99.99,,,-99.99,WSDL version 423,2013-08-04 12:54:00,
2013-08-04 08:59:00,64.5,53.6,29.29,WSW,248,1.5,4.9,68,-99.99,,,-99.99,WSDL version 423,2013-08-04 12:59:00,
2013-08-04 09:04:00,65.7,54.8,29.29,West,270,2.6,4.9,67,-99.99,,,-99.99,WSDL version 423,2013-08-04 13:04:00,
2013-08-04 09:09:00,66.3,55.2,29.26,West,281,0.3,3.8,68,-99.99,,,-99.99,WSDL version 423,2013-08-04 13:09:00,
2013-08-04 09:14:00,67.8,56.9,29.26,SW,228,1.2,2.7,68,-99.99,,,-99.99,WSDL version 423,2013-08-04 13:14:00,
2013-08-04 09:19:00,70.1,58.1,29.26,West,265,0.0,3.4,64,-99.99,,,-99.99,WSDL version 423,2013-08-04 13:19:00,
2013-08-04 09:24:00,71.9,57.9,29.29,SW,228,0.2,3.4,61,-99.99,,,-99.99,WSDL version 423,2013-08-04 13:24:00,
2013-08-04 09:29:00,73.4,58.5,29.29,WNW,288,0.3,2.9,60,-99.99,,,-99.99,WSDL version 423,2013-08-04 13:29:00,
2013-08-04 09:34:00,73.0,55.4,29.29,WSW,248,0.9,2.5,53,-99.99,,,-99.99,WSDL version 423,2013-08-04 13:34:00,
2013-08-04 09:44:00,72.5,51.9,29.29,West,262,1.5,3.8,47,-99.99,,,-99.99,WSDL version 423,2013-08-04 13:44:00,
2013-08-04 09:49:00,71.5,50.7,29.29,SSW,213,1.5,5.8,48,-99.99,,,-99.99,WSDL version 423,2013-08-04 13:49:00,
2013-08-04 09:54:00,71.7,52.1,29.29,WNW,293,1.2,6.3,47,-99.99,,,-99.99,WSDL version 423,2013-08-04 13:54:00,
2013-08-04 09:59:00,71.0,51.5,29.29,SW,236,0.1,6.3,51,-99.99,,,-99.99,WSDL version 423,2013-08-04 13:59:00,
2013-08-04 10:03:00,70.1,51.1,29.29,West,270,1.1,3.4,51,-99.99,,,-99.99,WSDL version 423,2013-08-04 14:03:00,
2013-08-04 10:09:00,69.7,49.9,29.29,North,3,2.3,4.9,49,-99.99,,,-99.99,WSDL version 423,2013-08-04 14:09:00,
2013-08-04 10:14:00,69.9,50.4,29.29,North,3,2.8,6.3,49,-99.99,,,-99.99,WSDL version 423,2013-08-04 14:14:00,
2013-08-04 10:19:00,71.5,51.3,29.29,NNW,332,2.8,6.3,48,-99.99,,,-99.99,WSDL version 423,2013-08-04 14:19:00,
2013-08-04 10:24:00,72.6,52.4,29.29,WSW,256,1.1,4.7,49,-99.99,,,-99.99,WSDL version 423,2013-08-04 14:24:00,
2013-08-04 10:29:00,72.9,53.1,29.29,NW,320,0.8,5.6,48,-99.99,,,-99.99,WSDL version 423,2013-08-04 14:29:00,
2013-08-04 10:34:00,71.4,51.1,29.29,NW,323,1.1,5.6,49,-99.99,,,-99.99,WSDL version 423,2013-08-04 14:34:00,
2013-08-04 10:39:00,72.6,52.9,29.29,WSW,243,1.0,3.1,50,-99.99,,,-99.99,WSDL version 423,2013-08-04 14:39:00,
2013-08-04 10:44:00,74.5,52.6,29.29,West,278,2.6,5.8,45,-99.99,,,-99.99,WSDL version 423,2013-08-04 14:44:00,
2013-08-04 10:48:00,73.9,51.9,29.29,NW,305,1.0,5.8,46,-99.99,,,-99.99,WSDL version 423,2013-08-04 14:48:00,
2013-08-04 10:53:00,72.5,50.0,29.29,North,8,1.4,3.8,44,-99.99,,,-99.99,WSDL version 423,2013-08-04 14:53:00,
2013-08-04 10:58:00,71.1,48.5,29.29,NNW,328,2.3,4.0,44,-99.99,,,-99.99,WSDL version 423,2013-08-04 14:58:00,
2013-08-04 11:04:00,70.3,47.8,29.29,NW,308,1.7,5.4,45,-99.99,,,-99.99,WSDL version 423,2013-08-04 15:04:00,
2013-08-04 11:08:00,69.2,47.5,29.29,NNW,329,1.7,5.8,46,-99.99,,,-99.99,WSDL version 423,2013-08-04 15:08:00,
2013-08-04 11:14:00,68.8,47.9,29.29,WNW,290,1.4,5.8,48,-99.99,,,-99.99,WSDL version 423,2013-08-04 15:14:00,
2013-08-04 11:19:00,71.0,51.0,29.29,SE,143,0.6,5.6,49,-99.99,,,-99.99,WSDL version 423,2013-08-04 15:19:00,
2013-08-04 11:23:00,71.4,51.2,29.29,SW,215,0.8,3.1,48,-99.99,,,-99.99,WSDL version 423,2013-08-04 15:23:00,
2013-08-04 11:28:00,71.1,50.7,29.29,WSW,238,0.3,2.2,48,-99.99,,,-99.99,WSDL version 423,2013-08-04 15:28:00,
2013-08-04 11:34:00,70.9,48.9,29.29,West,280,1.7,5.4,45,-99.99,,,-99.99,WSDL version 423,2013-08-04 15:34:00,
2013-08-04 11:39:00,71.2,50.0,29.29,WSW,253,0.9,5.4,47,-99.99,,,-99.99,WSDL version 423,2013-08-04 15:39:00,
2013-08-04 11:44:00,71.2,49.3,29.29,WSW,241,0.8,3.1,46,-99.99,,,-99.99,WSDL version 423,2013-08-04 15:44:00,
2013-08-04 11:49:00,71.2,49.0,29.29,WSW,250,1.4,3.1,46,-99.99,,,-99.99,WSDL version 423,2013-08-04 15:49:00,
2013-08-04 11:54:00,70.5,47.4,29.29,SW,219,2.8,5.6,44,-99.99,,,-99.99,WSDL version 423,2013-08-04 15:54:00,
2013-08-04 11:59:00,70.8,48.1,29.29,WSW,245,2.6,5.6,44,-99.99,,,-99.99,WSDL version 423,2013-08-04 15:59:00,
2013-08-04 12:04:00,72.0,49.2,29.29,SW,217,1.0,3.6,44,-99.99,,,-99.99,WSDL version 423,2013-08-04 16:04:00,
2013-08-04 12:09:00,72.6,49.4,29.29,SW,228,2.3,4.3,43,-99.99,,,-99.99,WSDL version 423,2013-08-04 16:09:00,
2013-08-04 12:14:00,74.5,51.0,29.29,SW,231,0.5,4.3,43,-99.99,,,-99.99,WSDL version 423,2013-08-04 16:14:00,
2013-08-04 12:19:00,76.5,50.0,29.29,WSW,239,2.7,6.3,39,-99.99,,,-99.99,WSDL version 423,2013-08-04 16:19:00,
2013-08-04 12:24:00,76.3,47.7,29.26,WSW,242,1.8,6.3,36,-99.99,,,-99.99,WSDL version 423,2013-08-04 16:24:00,
2013-08-04 12:29:00,76.4,49.7,29.26,WSW,238,1.2,4.9,40,-99.99,,,-99.99,WSDL version 423,2013-08-04 16:29:00,
2013-08-04 12:34:00,77.0,48.4,29.26,SW,230,2.7,6.3,34,-99.99,,,-99.99,WSDL version 423,2013-08-04 16:34:00,
2013-08-04 12:39:00,77.8,48.2,29.29,SW,228,2.7,6.3,35,-99.99,,,-99.99,WSDL version 423,2013-08-04 16:39:00,
2013-08-04 12:44:00,78.7,48.9,29.29,WSW,240,1.8,3.6,36,-99.99,,,-99.99,WSDL version 423,2013-08-04 16:44:00,
2013-08-04 12:49:00,78.7,48.8,29.29,West,276,0.5,3.6,37,-99.99,,,-99.99,WSDL version 423,2013-08-04 16:49:00,
2013-08-04 12:54:00,77.6,48.1,29.29,SW,225,1.9,3.6,35,-99.99,,,-99.99,WSDL version 423,2013-08-04 16:54:00,
2013-08-04 12:58:00,76.2,46.7,29.29,WSW,248,1.6,4.7,35,-99.99,,,-99.99,WSDL version 423,2013-08-04 16:58:00,
2013-08-04 13:04:00,73.1,48.4,29.29,SW,236,2.4,5.6,43,-99.99,,,-99.99,WSDL version 423,2013-08-04 17:04:00,
2013-08-04 13:09:00,70.9,48.5,29.29,SW,220,1.7,5.6,46,-99.99,,,-99.99,WSDL version 423,2013-08-04 17:09:00,
2013-08-04 13:14:00,70.6,49.9,29.29,SW,222,1.3,3.8,49,-99.99,,,-99.99,WSDL version 423,2013-08-04 17:14:00,
2013-08-04 13:19:00,69.5,50.0,29.29,SW,219,1.5,4.9,50,-99.99,,,-99.99,WSDL version 423,2013-08-04 17:19:00,
2013-08-04 13:23:00,70.5,51.7,29.29,WSW,248,1.9,4.9,52,-99.99,,,-99.99,WSDL version 423,2013-08-04 17:23:00,
2013-08-04 13:29:00,71.6,52.4,29.29,West,262,0.6,4.0,50,-99.99,,,-99.99,WSDL version 423,2013-08-04 17:29:00,
2013-08-04 13:33:00,70.1,50.1,29.29,SW,225,3.1,4.3,50,-99.99,,,-99.99,WSDL version 423,2013-08-04 17:33:00,
2013-08-04 13:44:00,69.2,53.2,29.29,WSW,238,2.3,3.1,57,-99.99,,,-99.99,WSDL version 423,2013-08-04 17:44:00,
2013-08-04 13:49:00,71.1,55.1,29.29,WSW,253,0.7,3.1,57,-99.99,,,-99.99,WSDL version 423,2013-08-04 17:49:00,
2013-08-04 13:54:00,71.9,55.4,29.29,SW,217,1.6,4.3,55,-99.99,,,-99.99,WSDL version 423,2013-08-04 17:54:00,
2013-08-04 14:04:00,67.8,47.3,29.29,SW,231,2.7,6.3,49,-99.99,,,-99.99,WSDL version 423,2013-08-04 18:04:00,
2013-08-04 14:09:00,66.9,48.5,29.32,SW,235,1.5,4.9,53,-99.99,,,-99.99,WSDL version 423,2013-08-04 18:09:00,
2013-08-04 14:13:00,66.5,49.3,29.32,SW,228,0.6,3.1,55,-99.99,,,-99.99,WSDL version 423,2013-08-04 18:13:00,
2013-08-04 14:19:00,66.3,50.5,29.32,SW,235,1.1,2.7,57,-99.99,,,-99.99,WSDL version 423,2013-08-04 18:19:00,
2013-08-04 14:23:00,66.6,51.7,29.32,WSW,242,0.5,2.5,59,-99.99,,,-99.99,WSDL version 423,2013-08-04 18:23:00,
2013-08-04 14:29:00,67.3,52.6,29.32,NNE,23,2.0,3.4,59,-99.99,,,-99.99,WSDL version 423,2013-08-04 18:29:00,
2013-08-04 14:34:00,68.7,54.5,29.32,West,260,0.4,3.4,61,-99.99,,,-99.99,WSDL version 423,2013-08-04 18:34:00,
2013-08-04 14:39:00,69.4,53.7,29.29,NNW,340,1.4,5.8,54,-99.99,,,-99.99,WSDL version 423,2013-08-04 18:39:00,
2013-08-04 14:43:00,69.3,53.2,29.29,SW,225,0.0,5.8,57,-99.99,,,-99.99,WSDL version 423,2013-08-04 18:43:00,
2013-08-04 14:49:00,69.6,53.7,29.29,WSW,256,1.0,2.2,57,-99.99,,,-99.99,WSDL version 423,2013-08-04 18:49:00,
2013-08-04 14:54:00,70.1,53.4,29.29,WNW,284,1.5,3.4,55,-99.99,,,-99.99,WSDL version 423,2013-08-04 18:54:00,
2013-08-04 14:59:00,70.9,52.9,29.29,NW,312,2.2,3.4,52,-99.99,,,-99.99,WSDL version 423,2013-08-04 18:59:00,
2013-08-04 15:04:00,71.5,51.1,29.29,West,275,2.3,6.0,47,-99.99,,,-99.99,WSDL version 423,2013-08-04 19:04:00,
2013-08-04 15:09:00,72.1,51.2,29.29,WSW,244,1.7,6.0,47,-99.99,,,-99.99,WSDL version 423,2013-08-04 19:09:00,
2013-08-04 15:14:00,72.1,50.3,29.29,WSW,245,2.0,3.6,45,-99.99,,,-99.99,WSDL version 423,2013-08-04 19:14:00,
2013-08-04 15:19:00,71.8,49.2,29.29,West,278,1.7,4.0,45,-99.99,,,-99.99,WSDL version 423,2013-08-04 19:19:00,
2013-08-04 15:24:00,70.9,48.9,29.29,West,264,2.1,4.3,46,-99.99,,,-99.99,WSDL version 423,2013-08-04 19:24:00,
2013-08-04 15:29:00,69.8,48.8,29.29,West,260,0.7,4.3,50,-99.99,,,-99.99,WSDL version 423,2013-08-04 19:29:00,
2013-08-04 15:34:00,68.3,49.8,29.29,SW,231,1.8,4.0,53,-99.99,,,-99.99,WSDL version 423,2013-08-04 19:34:00,
2013-08-04 15:39:00,66.9,49.5,29.29,SW,228,1.9,4.0,54,-99.99,,,-99.99,WSDL version 423,2013-08-04 19:39:00,
2013-08-04 15:44:00,66.3,49.3,29.29,SW,235,0.2,3.8,55,-99.99,,,-99.99,WSDL version 423,2013-08-04 19:44:00,
2013-08-04 15:49:00,66.4,50.7,29.29,SSW,206,0.0,2.5,58,-99.99,,,-99.99,WSDL version 423,2013-08-04 19:49:00,
2013-08-04 15:54:00,66.8,52.2,29.29,WNW,285,0.9,4.3,60,-99.99,,,-99.99,WSDL version 423,2013-08-04 19:54:00,
2013-08-04 15:59:00,66.7,52.8,29.29,SW,233,0.7,4.3,61,-99.99,,,-99.99,WSDL version 423,2013-08-04 19:59:00,
2013-08-04 16:03:00,66.6,51.9,29.29,WSW,245,1.8,3.1,58,-99.99,,,-99.99,WSDL version 423,2013-08-04 20:03:00,
2013-08-04 16:09:00,66.4,51.5,29.29,SW,222,1.7,3.1,58,-99.99,,,-99.99,WSDL version 423,2013-08-04 20:09:00,
2013-08-04 16:13:00,66.4,51.4,29.29,WSW,245,1.2,3.1,59,-99.99,,,-99.99,WSDL version 423,2013-08-04 20:13:00,
2013-08-04 16:18:00,66.8,52.0,29.29,SW,231,2.7,4.3,59,-99.99,,,-99.99,WSDL version 423,2013-08-04 20:18:00,
2013-08-04 16:23:00,66.9,51.7,29.32,SSW,208,1.5,4.3,58,-99.99,,,-99.99,WSDL version 423,2013-08-04 20:23:00,
2013-08-04 16:29:00,66.6,51.7,29.32,SW,233,2.3,3.8,58,-99.99,,,-99.99,WSDL version 423,2013-08-04 20:29:00,
2013-08-04 16:34:00,66.3,50.9,29.32,SW,233,1.6,4.9,58,-99.99,,,-99.99,WSDL version 423,2013-08-04 20:34:00,
2013-08-04 16:44:00,67.3,52.4,29.29,NW,305,1.3,3.4,57,-99.99,,,-99.99,WSDL version 423,2013-08-04 20:44:00,
2013-08-04 16:49:00,67.5,52.0,29.29,NNW,335,2.9,5.8,56,-99.99,,,-99.99,WSDL version 423,2013-08-04 20:49:00,
2013-08-04 16:53:00,67.3,51.0,29.29,West,259,2.2,5.8,55,-99.99,,,-99.99,WSDL version 423,2013-08-04 20:53:00,
2013-08-04 16:59:00,67.3,50.9,29.29,West,273,1.9,4.7,56,-99.99,,,-99.99,WSDL version 423,2013-08-04 20:59:00,
2013-08-04 17:04:00,67.3,51.3,29.29,SW,223,1.9,4.7,57,-99.99,,,-99.99,WSDL version 423,2013-08-04 21:04:00,
2013-08-04 17:09:00,67.3,51.0,29.32,WSW,239,2.1,3.6,56,-99.99,,,-99.99,WSDL version 423,2013-08-04 21:09:00,
2013-08-04 17:14:00,66.9,50.9,29.32,WSW,248,2.2,3.6,56,-99.99,,,-99.99,WSDL version 423,2013-08-04 21:14:00,
2013-08-04 17:18:00,66.6,51.0,29.32,WSW,248,1.2,3.4,58,-99.99,,,-99.99,WSDL version 423,2013-08-04 21:18:00,
2013-08-04 17:23:00,66.2,50.7,29.32,SW,233,2.4,4.3,58,-99.99,,,-99.99,WSDL version 423,2013-08-04 21:23:00,
2013-08-04 17:28:00,65.8,50.8,29.32,SW,236,0.6,4.3,59,-99.99,,,-99.99,WSDL version 423,2013-08-04 21:28:00,
2013-08-04 17:34:00,65.6,51.1,29.32,SW,225,0.6,3.1,60,-99.99,,,-99.99,WSDL version 423,2013-08-04 21:34:00,
2013-08-04 17:39:00,65.5,51.4,29.32,SSW,208,0.5,3.1,61,-99.99,,,-99.99,WSDL version 423,2013-08-04 21:39:00,
2013-08-04 17:49:00,65.5,52.6,29.32,SSW,208,1.7,3.1,63,-99.99,,,-99.99,WSDL version 423,2013-08-04 21:49:00,
2013-08-04 17:54:00,66.0,53.2,29.32,WSW,250,1.2,2.7,63,-99.99,,,-99.99,WSDL version 423,2013-08-04 21:54:00,
2013-08-04 17:59:00,66.4,53.6,29.32,West,280,3.2,7.8,63,-99.99,,,-99.99,WSDL version 423,2013-08-04 21:59:00,
2013-08-04 18:04:00,66.4,53.8,29.32,West,264,0.7,7.8,65,-99.99,,,-99.99,WSDL version 423,2013-08-04 22:04:00,
2013-08-04 18:09:00,66.3,53.8,29.32,SW,233,2.9,8.5,64,-99.99,,,-99.99,WSDL version 423,2013-08-04 22:09:00,
2013-08-04 18:14:00,66.0,52.8,29.32,WNW,295,1.8,8.5,62,-99.99,,,-99.99,WSDL version 423,2013-08-04 22:14:00,
2013-08-04 18:19:00,65.5,52.6,29.32,NW,315,1.3,6.9,63,-99.99,,,-99.99,WSDL version 423,2013-08-04 22:19:00,
2013-08-04 18:24:00,64.7,51.6,29.32,NW,315,1.3,6.0,63,-99.99,,,-99.99,WSDL version 423,2013-08-04 22:24:00,
2013-08-04 18:28:00,64.0,51.5,29.32,SW,233,2.5,6.0,64,-99.99,,,-99.99,WSDL version 423,2013-08-04 22:28:00,
2013-08-04 18:34:00,63.4,51.2,29.32,East,83,2.1,8.1,65,-99.99,,,-99.99,WSDL version 423,2013-08-04 22:34:00,
2013-08-04 18:39:00,63.0,51.6,29.32,WSW,245,1.0,8.1,67,-99.99,,,-99.99,WSDL version 423,2013-08-04 22:39:00,
2013-08-04 18:44:00,62.9,52.0,29.32,SSW,212,0.0,4.7,68,-99.99,,,-99.99,WSDL version 423,2013-08-04 22:44:00,
2013-08-04 18:49:00,63.0,53.0,29.32,SW,223,0.7,2.2,71,-99.99,,,-99.99,WSDL version 423,2013-08-04 22:49:00,
2013-08-04 18:54:00,63.4,54.0,29.32,SW,225,0.0,2.9,72,-99.99,,,-99.99,WSDL version 423,2013-08-04 22:54:00,
2013-08-04 18:59:00,63.8,54.7,29.32,SW,218,0.0,2.9,72,-99.99,,,-99.99,WSDL version 423,2013-08-04 22:59:00,
2013-08-04 19:04:00,63.5,54.4,29.32,SSW,205,0.0,1.1,72,-99.99,,,-99.99,WSDL version 423,2013-08-04 23:04:00,
2013-08-04 19:09:00,62.8,53.4,29.32,WNW,298,0.3,2.5,71,-99.99,,,-99.99,WSDL version 423,2013-08-04 23:09:00,
2013-08-04 19:14:00,62.2,53.1,29.32,WSW,243,0.8,3.1,72,-99.99,,,-99.99,WSDL version 423,2013-08-04 23:14:00,
2013-08-04 19:18:00,61.7,52.8,29.32,SW,233,0.6,3.8,73,-99.99,,,-99.99,WSDL version 423,2013-08-04 23:18:00,
2013-08-04 19:23:00,61.4,52.7,29.35,SSE,163,0.3,3.8,73,-99.99,,,-99.99,WSDL version 423,2013-08-04 23:23:00,
2013-08-04 19:29:00,61.1,52.8,29.35,SSW,200,0.0,2.9,75,-99.99,,,-99.99,WSDL version 423,2013-08-04 23:29:00,
2013-08-04 19:33:00,61.0,52.8,29.35,WSW,243,0.5,2.0,75,-99.99,,,-99.99,WSDL version 423,2013-08-04 23:33:00,
2013-08-04 19:39:00,61.0,53.1,29.35,WSW,248,0.0,2.0,76,-99.99,,,-99.99,WSDL version 423,2013-08-04 23:39:00,
2013-08-04 19:43:00,60.8,53.2,29.35,SW,228,0.3,1.6,77,-99.99,,,-99.99,WSDL version 423,2013-08-04 23:43:00,
2013-08-04 19:49:00,60.5,53.2,29.35,WSW,248,0.7,1.6,77,-99.99,,,-99.99,WSDL version 423,2013-08-04 23:49:00,
2013-08-04 19:54:00,60.3,53.0,29.35,WSW,242,0.0,1.6,76,-99.99,,,-99.99,WSDL version 423,2013-08-04 23:54:00,
2013-08-04 19:58:00,60.0,52.7,29.35,West,270,0.0,0.0,77,-99.99,,,-99.99,WSDL version 423,2013-08-04 23:58:00,
2013-08-04 20:03:00,59.6,52.4,29.35,SSW,208,0.0,1.1,77,-99.99,,,-99.99,WSDL version 423,2013-08-05 00:03:00,
2013-08-04 20:09:00,59.4,52.4,29.35,SW,235,1.0,1.6,78,-99.99,,,-99.99,WSDL version 423,2013-08-05 00:09:00,
2013-08-04 20:14:00,59.1,52.5,29.35,WSW,250,1.0,1.6,79,-99.99,,,-99.99,WSDL version 423,2013-08-05 00:14:00,
2013-08-04 20:19:00,58.8,52.6,29.35,WSW,238,1.2,2.7,80,-99.99,,,-99.99,WSDL version 423,2013-08-05 00:19:00,
2013-08-04 20:24:00,58.7,53.0,29.35,SW,218,0.9,2.7,81,-99.99,,,-99.99,WSDL version 423,2013-08-05 00:24:00,
2013-08-04 20:29:00,58.5,53.1,29.35,WNW,295,1.4,2.9,82,-99.99,,,-99.99,WSDL version 423,2013-08-05 00:29:00,
2013-08-04 20:34:00,58.5,52.9,29.35,West,268,0.5,2.9,82,-99.99,,,-99.99,WSDL version 423,2013-08-05 00:34:00,
2013-08-04 20:39:00,58.3,52.6,29.35,SSW,203,0.0,2.7,81,-99.99,,,-99.99,WSDL version 423,2013-08-05 00:39:00,
2013-08-04 20:44:00,58.1,52.4,29.35,South,186,0.0,1.6,81,-99.99,,,-99.99,WSDL version 423,2013-08-05 00:44:00,
2013-08-04 20:49:00,57.9,52.6,29.35,East,90,1.1,2.7,83,-99.99,,,-99.99,WSDL version 423,2013-08-05 00:49:00,
2013-08-04 20:54:00,57.7,52.7,29.38,SW,220,0.9,2.7,83,-99.99,,,-99.99,WSDL version 423,2013-08-05 00:54:00,
2013-08-04 20:59:00,57.6,52.6,29.38,SW,223,0.5,2.5,83,-99.99,,,-99.99,WSDL version 423,2013-08-05 00:59:00,
2013-08-04 21:04:00,57.6,52.9,29.38,ESE,103,0.1,2.5,84,-99.99,,,-99.99,WSDL version 423,2013-08-05 01:04:00,
2013-08-04 21:09:00,57.6,53.0,29.38,SW,218,2.1,3.4,84,-99.99,,,-99.99,WSDL version 423,2013-08-05 01:09:00,
2013-08-04 21:13:00,57.6,53.0,29.38,West,265,2.0,4.3,84,-99.99,,,-99.99,WSDL version 423,2013-08-05 01:13:00,
2013-08-04 21:19:00,57.6,52.9,29.38,SW,233,1.8,4.3,83,-99.99,,,-99.99,WSDL version 423,2013-08-05 01:19:00,
2013-08-04 21:24:00,57.6,52.6,29.38,West,264,2.6,4.0,83,-99.99,,,-99.99,WSDL version 423,2013-08-05 01:24:00,
2013-08-04 21:29:00,57.6,52.1,29.38,WSW,248,2.8,4.9,81,-99.99,,,-99.99,WSDL version 423,2013-08-05 01:29:00,
2013-08-04 21:34:00,57.6,51.8,29.38,SW,230,2.2,5.8,81,-99.99,,,-99.99,WSDL version 423,2013-08-05 01:34:00,
2013-08-04 21:39:00,57.4,51.3,29.38,ENE,68,2.0,5.8,80,-99.99,,,-99.99,WSDL version 423,2013-08-05 01:39:00,
2013-08-04 21:44:00,57.4,51.3,29.38,SW,223,1.3,5.4,80,-99.99,,,-99.99,WSDL version 423,2013-08-05 01:44:00,
2013-08-04 21:49:00,57.3,51.1,29.38,WNW,293,0.0,3.4,79,-99.99,,,-99.99,WSDL version 423,2013-08-05 01:49:00,
2013-08-04 21:53:00,57.1,50.9,29.41,NNW,348,0.8,3.8,80,-99.99,,,-99.99,WSDL version 423,2013-08-05 01:53:00,
2013-08-04 22:04:00,57.2,50.8,29.41,North,355,1.7,4.7,79,-99.99,,,-99.99,WSDL version 423,2013-08-05 02:04:00,
2013-08-04 22:09:00,57.2,50.7,29.41,NNW,348,2.2,4.7,79,-99.99,,,-99.99,WSDL version 423,2013-08-05 02:09:00,
2013-08-04 22:14:00,57.4,50.9,29.41,NNW,340,2.2,4.7,79,-99.99,,,-99.99,WSDL version 423,2013-08-05 02:14:00,
2013-08-04 22:19:00,57.4,50.5,29.41,SW,228,1.3,4.7,78,-99.99,,,-99.99,WSDL version 423,2013-08-05 02:19:00,
2013-08-04 22:24:00,57.3,50.1,29.41,WSW,238,0.7,3.4,77,-99.99,,,-99.99,WSDL version 423,2013-08-05 02:24:00,
2013-08-04 22:29:00,57.1,49.6,29.41,NNE,15,2.2,4.0,75,-99.99,,,-99.99,WSDL version 423,2013-08-05 02:29:00,
2013-08-04 22:34:00,56.8,49.0,29.41,North,11,1.7,4.0,75,-99.99,,,-99.99,WSDL version 423,2013-08-05 02:34:00,
2013-08-04 22:39:00,56.6,48.8,29.38,NNE,14,1.6,3.6,75,-99.99,,,-99.99,WSDL version 423,2013-08-05 02:39:00,
2013-08-04 22:44:00,56.3,48.6,29.38,NW,325,2.0,5.6,76,-99.99,,,-99.99,WSDL version 423,2013-08-05 02:44:00,
2013-08-04 22:49:00,56.1,48.5,29.38,WSW,242,0.7,5.6,76,-99.99,,,-99.99,WSDL version 423,2013-08-05 02:49:00,
2013-08-04 22:54:00,55.9,48.1,29.38,WSW,253,1.7,4.7,75,-99.99,,,-99.99,WSDL version 423,2013-08-05 02:54:00,
2013-08-04 22:59:00,55.8,48.0,29.38,NW,312,1.1,4.7,75,-99.99,,,-99.99,WSDL version 423,2013-08-05 02:59:00,
2013-08-04 23:04:00,55.6,47.8,29.38,SW,225,0.5,5.4,75,-99.99,,,-99.99,WSDL version 423,2013-08-05 03:04:00,
2013-08-04 23:09:00,55.4,47.6,29.38,SSW,211,0.0,5.4,75,-99.99,,,-99.99,WSDL version 423,2013-08-05 03:09:00,
2013-08-04 23:14:00,55.2,47.4,29.38,SW,218,0.6,2.9,75,-99.99,,,-99.99,WSDL version 423,2013-08-05 03:14:00,
2013-08-04 23:19:00,54.9,47.3,29.38,SSW,213,0.3,2.2,76,-99.99,,,-99.99,WSDL version 423,2013-08-05 03:19:00,
2013-08-04 23:24:00,54.7,47.3,29.38,WSW,250,0.7,2.0,76,-99.99,,,-99.99,WSDL version 423,2013-08-05 03:24:00,
2013-08-04 23:29:00,54.5,47.1,29.38,SW,223,0.6,2.0,76,-99.99,,,-99.99,WSDL version 423,2013-08-05 03:29:00,
2013-08-04 23:34:00,54.5,47.1,29.38,WSW,248,0.1,3.1,76,-99.99,,,-99.99,WSDL version 423,2013-08-05 03:34:00,
2013-08-04 23:38:00,54.2,46.8,29.38,North,357,0.8,3.1,76,-99.99,,,-99.99,WSDL version 423,2013-08-05 03:38:00,
2013-08-04 23:44:00,54.1,46.8,29.38,SW,222,0.0,2.0,76,-99.99,,,-99.99,WSDL version 423,2013-08-05 03:44:00,
2013-08-04 23:49:00,53.8,46.4,29.38,SSE,163,0.1,2.5,76,-99.99,,,-99.99,WSDL version 423,2013-08-05 03:49:00,
2013-08-04 23:54:00,53.5,46.1,29.38,SE,130,0.0,2.5,76,-99.99,,,-99.99,WSDL version 423,2013-08-05 03:54:00,
2013-08-04 23:59:00,53.2,46.2,29.38,SSW,203,0.0,0.0,77,-99.99,,,-99.99,WSDL version 423,2013-08-05 03:59:00,